Arden, NC

3:37 PM EST on December 07, 2016 (GMT -0500)
Asheville Regional

Weather History for KAVL - March, 2012

Change the Weather History Date:

Saturday, March 31, 2012

  Actual Average Record
Temperature  
Mean Temperature 63 °F 51 °F  
Max Temperature 74 °F 63 °F 81 °F (1963)
Min Temperature 52 °F 39 °F 20 °F (1964)
Degree Days  
Heating Degree Days 2 14  
Month to date heating degree days 259 554  
Since 1 July heating degree days 3065 3772  
Cooling Degree Days 0 0  
Month to date cooling degree days 1 1  
Year to date cooling degree days 1 1  
Growing Degree Days 15 (Base 50)    
Moisture  
Dew Point 53 °F    
Average Humidity 66    
Maximum Humidity 100    
Minimum Humidity 31    
Precipitation  
Precipitation 0.11 in 0.12 in 1.90 in (1870)
Month to date precipitation 2.72 3.83  
Year to date precipitation 8.16 11.26  
Snow  
Snow 0.00 in 0.00 in 2.40 in (1972)
Month to date snowfall T 1.9  
Since 1 July snowfall T 9.2  
Snow Depth 0.00 in    
Sea Level Pressure  
Sea Level Pressure 29.85 in    
Wind  
Wind Speed 6 mph (NNW)    
Max Wind Speed 16 mph    
Max Gust Speed 20 mph    
Visibility 7 miles    
Events Rain    
T = Trace of Precipitation, MM = Missing Value Source: NWS Daily Summary

Daily Weather History Graph

Daily Weather History Graph

Search for Another Location

Airport or City:

Trip Planner

Search our weather history database for the weather conditions in past years. The results will help you decide how hot, cold, wet, or windy it might be!

Date:

Astronomy

Mar. 31, 2012 Rise Set
Actual Time 7:17 AM EDT 7:51 PM EDT
Civil Twilight 6:51 AM EDT 8:16 PM EDT
Nautical Twilight 6:21 AM EDT 8:47 PM EDT
Astronomical Twilight 5:51 AM EDT 9:17 PM EDT
Moon 1:31 PM EDT (3/31) 2:59 AM EDT (3/31)
Length of Visible Light 13h 25m
Length of Day
12h 33m
First Quarter, 59% of the Moon is Illuminated
Mar 31
First Quarter
Apr 6
Full
Apr 13
Last Quarter
Apr 21
New
Apr 29
First Quarter

Hourly Weather History & Observations

Time (EDT) Temp. Dew Point Humidity Pressure Visibility Wind Dir Wind Speed Gust Speed Precip Events Conditions
12:06 AM 57.2 °F 55.4 °F 94% 29.94 in 7.0 mi South 3.5 mph - N/A   Overcast
12:54 AM 57.0 °F 55.9 °F 96% 29.87 in 4.0 mi Calm Calm - 0.00 in Rain Light Rain
1:00 AM 57.2 °F 55.4 °F 94% 29.93 in 4.0 mi Calm Calm - 0.00 in Rain Light Rain
1:54 AM 57.9 °F 55.9 °F 93% 29.86 in 5.0 mi Calm Calm - 0.02 in Rain Light Rain
2:08 AM 57.2 °F 57.2 °F 100% 29.91 in 4.0 mi Calm Calm - 0.01 in Rain Light Rain
2:26 AM 57.2 °F 55.4 °F 94% 29.90 in 4.0 mi Calm Calm - 0.03 in Rain Rain
2:54 AM 57.9 °F 57.0 °F 97% 29.83 in 5.0 mi Calm Calm - 0.04 in Rain Light Rain
3:08 AM 57.2 °F 55.4 °F 94% 29.89 in 6.0 mi Calm Calm - 0.00 in Rain Light Rain
3:16 AM 57.2 °F 55.4 °F 94% 29.88 in 6.0 mi Calm Calm - 0.00 in Rain Light Rain
3:54 AM 57.9 °F 57.0 °F 97% 29.81 in 4.0 mi Calm Calm - 0.02 in Rain Light Rain
4:05 AM 57.2 °F 55.4 °F 94% 29.87 in 3.0 mi Calm Calm - 0.01 in Rain Light Rain
4:41 AM 57.2 °F 57.2 °F 100% 29.85 in 6.0 mi Calm Calm - 0.02 in   Overcast
4:54 AM 57.9 °F 55.9 °F 93% 29.80 in 4.0 mi NNW 3.5 mph - 0.02 in   Overcast
5:33 AM 57.2 °F 55.4 °F 94% 29.85 in 7.0 mi NNW 6.9 mph - 0.00 in Rain Light Rain
5:46 AM 57.2 °F 55.4 °F 94% 29.85 in 6.0 mi NNW 8.1 mph - 0.00 in Rain Light Rain
5:54 AM 57.0 °F 55.9 °F 96% 29.81 in 6.0 mi NNW 9.2 mph - 0.00 in Rain Light Rain
6:54 AM 57.0 °F 55.9 °F 96% 29.82 in 8.0 mi NNW 8.1 mph - 0.00 in   Overcast
7:09 AM 57.2 °F 55.4 °F 94% 29.87 in 2.0 mi NNW 5.8 mph - 0.00 in Rain Light Rain
7:27 AM 57.2 °F 55.4 °F 94% 29.87 in 2.0 mi NW 5.8 mph - 0.01 in   Overcast
7:54 AM 57.0 °F 55.9 °F 96% 29.83 in 2.0 mi North 6.9 mph - 0.01 in   Partly Cloudy
8:01 AM 57.2 °F 55.4 °F 94% 29.87 in 6.0 mi North 3.5 mph - N/A   Scattered Clouds
8:08 AM 57.2 °F 55.4 °F 94% 29.88 in 7.0 mi North 5.8 mph - N/A   Mostly Cloudy
8:54 AM 57.9 °F 55.9 °F 93% 29.85 in 8.0 mi Calm Calm - N/A   Scattered Clouds
9:54 AM 62.1 °F 57.9 °F 86% 29.84 in 10.0 mi North 10.4 mph - N/A   Partly Cloudy
10:54 AM 64.9 °F 55.0 °F 70% 29.85 in 10.0 mi North 11.5 mph - N/A   Clear
11:54 AM 66.9 °F 51.1 °F 57% 29.86 in 10.0 mi North 9.2 mph 17.3 mph N/A   Overcast
12:54 PM 69.1 °F 51.1 °F 53% 29.85 in 10.0 mi North 8.1 mph - N/A   Mostly Cloudy
1:54 PM 72.0 °F 51.1 °F 48% 29.82 in 10.0 mi North 12.7 mph 19.6 mph N/A   Scattered Clouds
2:54 PM 72.0 °F 50.0 °F 46% 29.80 in 10.0 mi North 11.5 mph 18.4 mph N/A   Scattered Clouds
3:54 PM 73.0 °F 50.0 °F 44% 29.77 in 10.0 mi North 12.7 mph 16.1 mph N/A   Scattered Clouds
4:54 PM 72.0 °F 48.0 °F 43% 29.77 in 10.0 mi North 9.2 mph 17.3 mph N/A   Mostly Cloudy
5:54 PM 71.1 °F 46.9 °F 42% 29.75 in 10.0 mi NW 11.5 mph - 0.00 in   Clear
6:54 PM 70.0 °F 37.9 °F 31% 29.78 in 10.0 mi NW 8.1 mph - N/A   Clear
7:54 PM 66.9 °F 39.0 °F 36% 29.80 in 10.0 mi NNW 3.5 mph - N/A   Clear
8:54 PM 63.0 °F 45.0 °F 52% 29.81 in 10.0 mi NW 6.9 mph - N/A   Clear
9:54 PM 60.8 °F 44.6 °F 55% 29.87 in 10.0 mi Calm Calm - N/A   Clear
10:54 PM 57.9 °F 48.0 °F 70% 29.83 in 10.0 mi Calm Calm - N/A   Clear
11:54 PM 55.4 °F 48.2 °F 77% 29.89 in 10.0 mi WNW 3.5 mph - N/A   Clear